Wind_Speed
7 8 10 12 12 13 14 16 17 18 19 19 20 20 19 18 18 17 17 17 17 17 18 20 22 22 23 24 25 27 27 28 29 28 28 28 27 26 25 24 22 21 20 19 18 18 18 19 18 18 18 19 19 18 18 18 17 16 16 17 17 17 17 19 21 21 19 18 17 17 17 18 18 17 18 20 19 20 22 21 21 24 25 24 24
5 7 8 10 11 12 13 15 16 17 18 19 19 20 19 19 18 18 17 16 16 17 18 21 22 23 23 24 25 26 27 28 29 29 29 28 28 27 27 26 24 23 22 20 19 18 18 18 18 17 17 17 16 16 17 17 16 16 15 15 16 16 16 17 18 19 19 18 17 16 16 17 18 19 20 22 22 22 23 22 22 24 25 25 26
3 5 6 8 9 10 12 14 15 16 17 18 18 19 19 19 19 18 18 17 17 18 19 21 21 22 23 24 25 26 26 27 28 29 29 28 28 28 27 27 26 24 23 22 21 19 18 17 17 16 17 16 15 15 15 15 15 15 14 14 14 14 13 12 13 14 15 16 16 15 15 16 16 18 21 22 23 24 24 22 22 23 24 26 29
2 3 4 6 7 9 10 11 14 15 16 17 18 18 18 18 18 19 18 18 18 19 20 21 21 22 23 24 24 25 26 27 27 28 28 28 28 28 28 27 26 25 24 24 23 21 20 19 17 16 16 16 15 14 14 14 14 14 13 13 13 14 13 13 13 13 14 14 15 15 15 15 15 16 20 21 21 24 25 24 23 23 25 28 29
4 3 3 4 5 7 8 9 11 14 15 16 16 17 17 17 17 18 18 18 18 19 19 21 21 21 22 23 24 25 26 27 27 27 27 27 27 28 28 27 27 26 25 24 24 22 21 19 18 17 17 16 15 15 14 14 14 15 15 14 13 12 13 14 14 14 14 13 13 14 16 16 16 16 19 20 19 22 25 25 25 24 26 29 29
6 4 2 2 3 5 7 8 9 11 13 15 15 16 15 16 16 16 17 17 17 18 19 20 21 21 21 22 23 24 24 26 27 26 26 26 25 26 27 27 26 26 25 25 25 24 22 20 20 19 18 17 17 16 15 14 15 15 16 16 14 13 12 12 14 15 14 13 13 15 16 16 16 17 20 21 20 21 23 24 26 26 28 31 30
7 5 3 1 1 3 5 6 7 8 10 13 14 15 14 14 14 15 15 15 16 17 18 18 19 20 20 21 22 23 24 25 26 26 26 26 25 26 27 26 26 26 25 25 25 24 24 23 22 21 20 19 18 18 17 16 15 15 15 16 16 16 15 14 15 16 17 17 17 17 19 19 19 19 22 24 24 23 22 24 26 28 31 32 32
10 7 6 4 2 0 3 5 6 6 7 10 12 13 14 13 13 13 13 13 14 15 15 16 17 18 20 20 21 21 23 24 25 26 26 26 26 26 26 26 26 26 25 25 24 24 24 23 23 22 22 21 20 19 18 17 16 16 16 16 17 18 18 17 16 17 17 18 18 18 19 21 21 21 22 24 25 24 23 25 28 30 32 33 34
13 10 9 7 5 2 1 3 5 6 6 7 10 11 13 13 12 12 11 11 12 12 12 13 14 16 18 19 19 20 21 22 23 25 26 27 26 26 25 25 25 25 25 25 24 23 23 23 22 22 22 21 21 20 20 18 17 17 17 17 18 19 20 19 18 18 17 17 18 18 19 19 21 22 23 22 23 25 25 28 31 32 33 35 36
17 14 12 10 7 5 2 0 3 5 5 5 7 9 11 12 12 11 10 10 10 11 10 10 12 13 15 16 17 18 19 20 20 22 25 27 26 26 25 25 24 24 24 24 24 24 23 23 22 22 22 22 21 21 20 19 18 17 16 16 17 19 21 20 20 18 17 16 18 19 19 19 20 23 25 24 24 26 28 30 32 33 34 36 38
19 16 14 12 10 7 5 2 0 3 4 3 6 8 9 10 10 10 9 8 9 9 9 8 9 11 13 14 15 16 17 18 19 20 22 24 25 26 25 25 24 24 24 24 24 24 24 24 23 23 22 21 21 21 20 20 19 18 17 16 16 18 19 19 18 17 16 18 19 18 17 17 18 21 24 25 26 28 30 30 31 32 35 37 39
20 19 17 15 13 10 8 6 3 1 2 3 4 7 8 8 8 8 7 7 7 8 8 8 8 9 10 11 12 14 15 16 18 18 19 21 23 24 25 25 24 24 24 24 24 25 24 25 25 24 23 22 22 22 21 21 21 20 19 17 16 15 15 16 16 15 15 18 19 17 16 15 16 19 22 23 24 26 28 30 31 33 36 38 39
23 21 19 17 15 12 11 9 6 5 2 1 3 5 6 5 5 5 5 5 5 6 7 7 8 8 9 9 10 12 13 15 16 17 17 19 20 22 23 23 24 24 24 24 25 25 25 24 25 25 24 24 23 23 22 22 22 22 21 19 18 16 14 14 14 13 14 15 16 16 16 15 16 18 21 22 23 25 28 30 33 36 37 38 39
24 23 21 18 17 15 13 11 10 8 6 4 3 4 4 3 2 1 2 3 3 4 5 6 7 8 8 8 9 10 12 14 15 16 16 17 19 20 21 22 22 23 23 24 24 25 25 25 24 24 24 25 25 24 23 23 23 22 22 21 20 19 17 14 13 13 13 14 15 15 15 15 17 19 20 22 24 27 29 32 35 36 37 37 38
26 25 23 20 18 17 16 14 12 11 10 8 5 4 4 3 2 2 3 2 1 2 3 4 5 6 6 6 7 9 11 12 13 14 14 15 18 20 21 21 21 22 22 22 23 24 24 24 24 24 24 24 24 25 24 23 23 23 23 23 21 20 18 16 15 14 14 15 16 15 15 16 18 21 22 24 27 29 31 32 34 35 35 35 35
26 26 25 23 21 20 19 17 16 14 13 11 9 7 6 4 3 3 4 4 3 2 1 1 2 3 4 5 6 8 9 11 12 12 13 13 15 18 20 21 21 21 21 21 21 22 23 23 24 24 24 24 24 24 24 24 24 24 23 23 22 20 18 17 16 15 15 16 17 17 16 17 20 22 24 26 29 30 31 31 32 32 32 32 33
26 26 27 25 24 23 22 20 19 17 16 14 12 11 9 7 5 3 4 5 5 4 3 2 1 1 2 3 4 6 7 8 9 10 11 12 13 16 19 21 21 21 21 20 20 21 22 22 22 22 23 23 23 23 23 23 24 24 24 23 22 20 19 17 16 15 15 15 17 18 19 18 19 21 24 26 28 29 30 31 32 31 30 30 30
29 28 28 28 27 26 25 24 22 21 19 17 16 14 12 11 9 7 5 5 5 6 5 4 3 3 2 1 2 4 4 4 6 8 9 10 11 14 17 20 21 21 21 20 20 21 22 22 22 21 21 21 21 22 22 22 22 22 23 23 22 20 19 18 17 17 17 17 17 19 21 21 20 20 21 24 26 27 29 30 30 29 28 28 28
32 29 29 30 29 28 27 27 26 24 22 20 18 18 16 14 13 12 11 9 7 6 6 5 4 3 2 2 3 3 2 0 3 6 7 8 8 11 15 18 19 19 19 19 19 19 20 21 21 21 21 20 20 19 20 20 20 20 21 21 21 20 19 18 17 17 17 18 18 18 21 22 22 20 21 24 25 25 26 26 26 25 25 25 25
33 31 30 30 30 30 29 30 29 28 25 23 21 20 20 18 17 17 16 15 12 10 8 7 5 4 1 2 2 1 1 1 0 3 5 5 5 8 12 15 16 17 17 18 18 18 19 19 20 20 20 20 19 19 18 18 19 18 18 18 18 18 17 17 16 17 17 17 16 16 18 21 22 21 20 21 22 23 24 24 23 23 24 24 24
36 34 34 32 32 32 32 32 32 31 28 26 25 24 23 22 21 21 21 20 18 15 13 12 10 8 5 4 4 0 1 1 1 2 3 3 3 4 8 11 13 14 15 16 16 17 17 17 17 18 19 19 19 18 18 18 17 17 16 16 16 16 16 15 15 15 16 16 17 17 17 18 20 20 19 19 20 21 21 21 21 21 22 23 23
40 38 37 35 33 32 33 34 33 34 32 29 28 28 27 26 25 25 25 24 22 19 18 16 14 13 11 10 8 5 2 2 2 1 1 3 3 3 4 6 9 11 12 13 15 15 15 15 15 15 16 17 17 17 17 16 16 16 15 15 14 14 14 14 14 14 14 15 16 17 17 17 17 18 19 18 18 18 18 18 18 18 19 20 20
41 39 37 36 34 33 34 34 34 36 35 32 31 31 30 29 28 27 27 27 25 23 21 19 18 17 16 14 13 11 8 6 4 4 4 5 4 4 3 2 4 7 9 11 12 13 13 13 13 13 14 15 15 15 15 15 14 14 15 14 14 14 13 13 13 13 13 13 14 16 17 17 17 17 16 15 15 16 16 16 15 15 16 17 17
40 40 39 38 36 35 36 36 36 38 37 34 34 33 32 32 31 31 30 29 28 26 24 22 21 21 20 19 17 16 14 12 10 8 8 7 7 8 7 5 5 5 6 8 9 11 12 12 11 11 12 13 13 14 14 13 13 13 13 14 14 14 13 13 13 13 13 13 13 14 14 15 16 15 14 13 13 13 14 14 14 14 14 14 14
39 40 41 40 38 37 38 38 39 40 39 37 36 34 34 34 34 33 32 31 30 28 26 25 23 23 22 22 21 20 18 16 15 14 12 11 11 10 10 9 9 8 6 5 7 9 11 11 10 9 9 10 11 12 12 12 12 11 12 13 13 13 14 14 13 13 13 12 12 12 12 12 13 13 12 12 11 11 12 12 12 12 13 13 12
40 41 41 41 41 39 40 42 42 42 41 38 36 35 36 36 36 35 34 34 34 32 29 27 25 24 24 24 25 23 21 20 19 18 17 16 15 14 13 13 13 12 10 7 6 7 10 10 10 9 8 8 7 8 9 9 10 10 10 10 11 13 13 13 14 13 13 12 11 11 11 11 10 10 11 11 10 9 10 10 10 11 11 11 11
40 42 43 44 45 44 43 45 44 44 44 40 36 37 38 38 38 37 37 36 35 34 32 29 27 26 24 25 25 26 25 24 23 22 21 20 19 18 17 16 15 15 14 11 10 9 10 10 10 10 8 8 6 5 5 6 7 8 8 8 8 11 12 13 14 13 13 12 12 11 9 8 8 8 9 9 9 8 8 8 9 10 9 8 8
42 42 44 46 47 47 47 47 45 45 45 42 40 40 40 40 40 39 37 36 34 32 32 30 30 29 27 26 26 27 28 27 26 26 25 24 23 21 20 19 18 17 17 16 14 13 13 12 12 11 11 10 8 6 4 3 3 4 5 6 5 6 9 11 12 12 13 11 8 9 10 9 9 8 7 7 7 6 6 6 6 7 7 6 5
46 43 45 47 48 48 47 47 48 48 46 45 45 45 42 42 44 42 38 37 36 34 32 31 30 30 30 31 31 30 30 30 29 29 28 27 25 24 23 21 20 19 19 19 19 18 16 15 14 13 13 12 11 9 7 5 4 3 3 3 3 3 4 7 8 9 9 6 2 6 11 11 9 8 7 6 5 4 3 3 3 4 4 5 5
48 44 46 49 50 51 49 48 49 49 49 49 48 45 42 41 45 46 42 39 39 37 33 31 29 30 33 35 36 36 35 34 33 33 32 31 29 28 26 23 22 22 22 21 21 21 20 18 17 16 16 15 14 13 12 10 8 7 5 4 3 2 0 2 3 4 5 5 5 9 10 8 7 7 5 5 5 3 3 2 2 3 4 4 5
51 45 44 48 49 49 50 51 52 51 50 51 50 49 47 45 46 47 43 40 40 39 36 33 32 33 35 38 38 38 37 36 35 34 33 33 32 31 30 27 25 24 24 23 23 23 23 22 21 20 18 17 17 17 16 14 13 12 10 9 9 7 6 4 5 5 3 4 5 7 7 6 6 6 6 5 5 5 4 3 2 2 2 3 5
59 55 47 47 48 47 47 49 53 55 54 52 52 53 51 50 52 53 48 43 41 40 37 36 35 35 35 37 40 41 40 37 36 34 34 34 33 32 32 31 29 27 26 26 25 25 26 25 25 24 23 21 19 20 19 17 16 16 16 14 13 12 11 10 10 7 3 3 4 2 3 3 4 3 3 3 5 5 5 5 4 3 2 1 2
61 66 58 51 50 51 50 49 51 55 56 54 54 55 54 54 56 57 55 52 45 41 38 38 38 38 38 39 41 42 42 40 38 37 37 37 36 36 36 34 33 31 30 29 28 28 28 28 28 28 28 25 23 22 22 21 20 20 20 19 18 17 16 15 14 12 8 7 7 5 3 5 6 4 2 3 3 4 5 6 6 6 6 4 3
56 66 67 61 56 57 57 55 54 55 57 58 58 58 60 61 60 58 59 59 53 48 46 45 46 46 47 47 46 45 44 43 41 40 41 41 41 40 38 36 35 35 34 33 32 31 31 31 31 31 31 30 28 26 25 24 24 24 24 24 23 21 20 20 19 18 16 14 12 10 10 9 9 8 5 7 6 4 5 6 6 7 7 7 6
54 59 65 65 62 61 62 60 58 57 58 61 62 62 63 65 63 61 62 62 58 54 52 52 52 53 53 53 52 51 51 51 49 48 47 47 45 43 41 39 38 39 38 37 36 35 34 34 34 34 33 33 32 31 30 29 28 28 27 27 27 26 25 24 24 23 21 19 17 15 15 13 12 11 9 9 9 8 8 7 6 6 6 6 6
55 55 60 65 66 64 64 64 61 57 56 60 65 66 66 66 65 63 62 62 60 58 56 56 57 58 58 59 58 58 57 56 56 54 53 53 52 50 49 46 44 43 42 40 39 37 36 36 37 36 37 37 36 36 37 36 34 32 31 30 31 30 29 28 28 27 26 24 22 20 19 17 15 13 12 12 13 14 13 12 10 9 8 7 6
61 56 57 66 71 69 66 65 62 58 55 58 64 67 67 67 65 63 63 63 64 64 63 62 63 63 64 65 65 64 62 61 60 59 58 57 57 56 54 51 48 46 44 41 39 37 35 34 35 37 39 40 39 39 41 41 40 38 37 35 35 34 33 32 31 31 30 28 27 25 23 21 19 18 16 14 15 17 17 16 15 14 14 13 12
73 68 64 68 74 76 73 70 67 64 60 60 64 67 68 68 67 66 66 67 69 71 70 68 68 68 69 69 69 68 66 64 63 63 62 62 61 59 56 53 51 49 47 45 42 40 36 33 36 40 42 42 41 41 42 42 43 43 41 40 39 38 36 34 34 34 34 33 31 30 28 26 24 22 20 18 19 20 20 20 20 20 21 20 19
83 81 74 72 74 79 81 79 75 73 70 67 67 69 69 70 71 71 70 69 70 73 74 74 72 72 72 72 72 72 70 68 67 66 66 65 64 62 59 57 54 53 51 49 47 44 40 36 39 43 45 44 44 44 43 42 42 44 45 43 43 43 40 36 35 36 38 37 35 34 32 31 29 27 25 23 24 24 24 24 25 25 24 24 23
88 87 82 77 75 77 82 84 82 81 79 76 74 73 73 72 72 74 75 73 71 71 74 76 76 75 76 76 76 74 73 72 71 70 69 68 67 66 63 60 58 57 55 54 52 50 47 43 43 45 46 45 44 45 45 44 44 46 47 46 45 46 44 40 37 38 39 40 39 37 36 35 34 33 30 28 27 28 28 29 29 30 30 29 29
89 90 87 85 83 79 78 80 82 84 84 84 81 79 79 77 74 75 77 78 75 72 72 73 76 77 77 78 78 76 74 74 73 73 73 72 70 69 67 64 62 60 59 57 56 54 52 49 48 48 47 46 45 45 46 47 49 50 50 49 48 48 47 44 41 39 40 42 42 40 38 38 38 37 36 33 31 32 33 33 34 34 35 35 35
93 93 92 91 91 89 84 81 79 80 82 84 84 84 84 83 80 77 77 79 80 78 75 73 74 76 78 79 80 78 75 73 72 72 72 72 70 69 68 67 65 64 63 61 59 58 56 53 52 51 49 46 44 44 45 49 55 55 53 52 51 51 50 49 47 44 44 44 43 42 42 43 42 41 41 39 37 36 36 38 38 38 38 39 38
100 100 99 97 95 94 93 90 86 84 83 83 84 84 85 86 85 83 81 80 80 82 81 77 74 74 76 78 80 80 79 76 75 74 73 72 72 71 69 69 68 67 66 65 63 61 59 57 56 56 53 49 48 47 44 47 56 60 57 54 54 52 53 54 53 52 50 48 45 44 45 46 46 45 44 43 41 40 40 41 42 42 42 42 42
104 105 106 106 104 101 100 99 97 94 91 89 88 88 87 88 88 89 87 85 83 83 83 82 78 75 74 75 77 79 81 81 81 80 78 76 75 74 73 72 72 71 70 68 67 65 64 62 61 60 59 56 57 57 53 54 61 66 62 59 57 56 56 58 57 56 55 52 49 47 46 46 47 47 47 46 45 44 43 44 45 46 46 46 46
105 106 107 109 110 110 108 107 106 104 103 99 97 95 94 93 92 92 93 92 90 87 85 85 84 81 78 74 73 75 78 80 81 82 82 80 79 78 77 76 75 74 73 72 71 69 68 67 66 65 64 62 63 67 69 68 70 71 68 65 63 61 61 63 63 61 59 56 54 52 50 49 48 49 49 49 48 47 47 47 48 49 49 50 50
105 105 106 106 108 110 111 110 109 109 110 109 106 103 102 100 98 97 97 96 96 94 91 89 88 88 86 81 76 74 76 77 77 78 80 81 82 82 81 80 78 77 77 76 75 73 71 71 71 71 70 68 68 71 74 73 73 74 72 69 67 66 66 67 67 66 64 61 59 58 56 55 54 54 54 55 55 54 54 54 54 53 53 54 55
103 105 107 107 106 107 108 109 110 110 111 112 111 109 108 106 103 102 101 100 100 100 98 95 93 92 92 90 86 81 78 78 77 76 76 79 82 84 85 83 81 80 80 79 77 76 74 74 74 75 75 74 74 75 76 75 75 76 75 74 73 73 72 72 71 71 69 68 67 65 63 62 61 60 60 61 62 62 62 62 61 61 60 60 61
99 102 106 109 110 109 108 108 108 108 110 111 112 112 111 109 107 104 103 103 102 103 103 102 99 97 96 96 95 92 88 84 81 79 77 78 81 84 86 86 85 83 82 80 79 78 76 75 76 77 77 77 77 78 78 78 79 78 78 79 79 78 77 76 76 76 75 75 75 74 72 71 69 67 67 67 67 68 68 68 67 66 65 65 65
99 100 102 105 109 112 113 112 110 109 109 109 110 111 112 112 111 109 108 106 105 105 106 106 106 104 103 101 99 99 98 95 90 87 84 82 82 83 85 86 86 86 84 83 82 81 79 78 79 80 81 81 81 81 81 82 82 82 82 82 82 81 81 80 80 79 79 79 79 79 79 78 76 73 72 72 72 73 73 73 72 71 69 69 69
101 102 103 104 106 108 111 113 113 113 112 112 111 111 113 114 114 113 112 110 109 108 108 108 108 108 108 107 104 102 103 102 100 98 95 92 88 86 85 84 85 85 86 86 85 84 83 82 83 83 84 85 86 86 86 86 87 87 87 86 85 85 84 83 83 83 83 82 81 81 81 81 80 79 78 77 77 77 78 78 77 76 74 73 74
101 101 103 104 105 107 109 111 112 113 114 114 114 113 113 114 115 116 115 114 113 111 110 110 110 110 110 111 111 108 106 106 105 105 104 103 99 94 92 90 87 86 86 86 88 88 87 86 86 86 87 88 89 90 91 91 92 93 93 91 90 88 87 85 85 86 86 87 86 85 84 84 84 84 83 82 82 81 82 82 82 82 81 80 79
Wind_Direction
35 30 32 34 36 43 45 44 46 46 49 51 51 52 51 52 53 53 54 53 54 52 48 48 50 50 49 50 52 53 55 56 56 56 57 57 55 55 55 57 58 59 61 65 67 69 71 74 76 77 77 75 74 74 77 80 82 81 76 71 70 72 76 79 80 78 74 72 72 68 61 57 53 49 44 41 38 35 32 31 30 29 31 36 37
52 32 26 32 35 42 49 47 48 49 51 53 53 54 54 53 52 52 54 55 54 52 50 50 51 52 51 52 53 54 56 58 59 58 58 59 58 56 55 56 57 58 59 60 62 65 68 71 74 78 78 76 74 74 77 80 81 80 79 77 74 75 78 78 77 76 73 66 65 64 59 56 54 49 43 39 37 33 30 31 31 30 32 37 37
85 50 25 28 35 42 50 51 51 52 54 56 57 57 57 56 54 53 54 54 54 53 52 53 53 53 54 54 55 56 58 60 61 60 60 61 60 58 57 56 57 57 57 58 59 63 67 69 71 75 77 76 73 74 76 79 81 82 81 79 75 72 74 74 73 73 70 63 59 57 54 52 50 46 41 39 39 36 34 34 33 33 37 40 38
150 84 38 24 35 43 52 56 55 56 58 60 61 62 61 60 58 56 56 55 55 56 55 54 54 55 55 56 58 58 58 59 61 62 62 62 62 61 59 59 58 58 58 59 61 65 67 68 68 70 72 73 72 73 76 76 77 77 76 75 74 73 71 68 68 69 69 67 58 55 53 48 45 44 41 42 43 40 38 39 39 40 41 41 39
189 136 72 27 30 41 52 61 61 60 62 65 66 67 66 64 62 60 59 57 57 57 57 56 55 55 56 57 58 58 56 58 60 62 63 64 64 63 62 61 61 60 59 60 62 64 66 66 65 66 67 68 70 70 72 74 73 71 68 67 71 75 72 67 68 70 71 69 60 58 57 50 47 47 46 46 46 43 43 43 43 43 40 39 39
198 172 134 43 25 32 45 61 68 66 65 69 71 72 73 70 66 63 62 60 58 57 57 57 56 56 56 56 58 58 57 57 59 61 63 64 64 64 63 63 62 61 62 62 62 62 62 63 63 63 64 64 66 68 68 70 70 69 68 67 67 68 67 65 66 68 69 69 65 63 62 56 52 50 48 49 49 47 46 44 43 43 40 40 43
201 187 186 191 35 23 35 54 70 72 70 71 76 78 78 76 71 66 63 61 59 56 55 55 56 56 55 55 56 57 59 59 60 60 62 63 64 64 64 63 62 63 63 64 64 62 61 62 62 62 62 62 64 67 68 69 69 68 70 72 71 68 67 67 69 71 71 72 71 69 66 63 60 54 48 48 49 47 45 45 47 45 45 48 52
199 194 200 210 213 6 30 46 61 73 75 75 79 82 83 81 77 70 64 62 59 53 51 52 53 54 54 55 55 55 57 60 60 60 60 61 62 64 64 63 62 61 63 64 64 64 63 62 63 63 62 62 63 65 67 70 71 70 72 75 77 77 76 75 75 75 73 73 73 72 67 65 62 56 49 46 46 48 50 52 54 52 53 57 60
196 195 202 211 220 227 4 42 51 63 82 85 82 84 86 85 82 76 67 64 63 54 47 48 49 50 52 54 55 55 55 57 59 60 60 60 61 63 63 63 62 61 62 63 64 65 64 63 63 64 64 63 64 65 67 68 70 72 74 76 80 83 84 84 83 80 77 77 76 71 65 62 57 49 47 49 52 55 58 60 60 60 61 65 67
197 193 200 208 216 226 229 50 45 52 72 96 94 88 89 89 85 81 72 63 63 59 52 48 44 43 46 48 50 53 54 54 57 59 59 60 60 61 62 62 62 62 61 61 62 64 65 64 63 62 63 62 62 62 64 64 67 72 75 78 83 86 88 88 88 86 82 81 78 70 62 57 48 40 44 54 59 62 65 64 64 66 68 72 75
201 195 198 205 213 222 229 225 156 52 54 84 111 102 93 92 89 83 77 65 60 62 61 55 47 42 41 41 43 47 50 52 54 57 59 60 60 61 61 61 61 61 60 59 60 61 63 64 63 62 62 61 59 58 59 59 60 64 68 76 84 86 85 84 86 86 80 76 77 74 66 56 45 41 47 56 62 66 67 66 68 72 75 79 81
205 200 200 203 209 217 226 229 220 184 61 68 125 123 104 94 91 88 83 73 63 62 63 63 56 48 42 38 38 42 46 50 53 55 56 56 59 61 61 61 60 60 60 59 58 58 59 61 61 62 61 60 59 58 56 54 54 56 60 67 74 75 75 76 81 82 77 74 75 76 71 61 52 51 54 58 63 67 67 70 76 81 83 85 86
206 204 204 204 206 215 225 230 230 224 202 115 141 149 130 108 93 90 90 83 72 63 61 63 61 54 49 42 39 40 44 48 52 54 54 52 53 56 58 60 60 59 58 58 57 56 55 55 57 58 59 59 58 57 56 55 53 53 54 57 61 63 65 71 75 75 74 72 71 72 69 62 58 59 59 61 67 71 73 80 87 89 90 90 89
206 206 207 207 206 213 224 231 237 238 230 210 187 187 179 166 144 127 117 100 83 74 66 66 65 61 56 49 43 43 44 47 50 53 54 53 52 52 53 55 57 57 57 56 55 55 54 53 53 54 55 55 56 55 55 55 54 52 51 53 56 60 63 68 72 72 72 70 67 65 62 57 58 61 64 69 75 79 84 90 92 93 93 93 92
206 206 208 209 208 213 222 230 237 243 244 234 215 211 219 216 211 209 195 172 125 94 79 72 72 70 63 54 49 46 45 46 48 49 51 53 54 53 51 51 52 53 55 55 53 53 53 52 51 50 50 51 53 53 53 54 54 53 51 51 53 57 61 67 71 70 68 68 65 61 59 60 64 69 72 76 81 87 94 98 97 97 97 96 95
207 207 208 208 208 213 219 227 234 241 248 247 235 224 225 228 216 205 204 200 201 206 167 81 75 75 64 55 52 48 46 46 47 47 48 49 53 55 53 51 49 48 50 52 52 52 51 50 49 49 49 50 51 51 52 53 54 55 53 51 51 54 58 64 68 68 67 66 65 66 67 68 70 74 78 80 86 92 98 101 101 101 101 99 97
210 210 210 210 210 212 217 224 229 236 244 249 246 235 227 232 229 211 205 207 211 219 225 240 271 12 43 53 52 46 46 48 47 46 46 46 52 56 55 52 49 47 46 47 49 51 50 49 47 47 48 49 50 51 52 53 55 57 57 55 53 53 56 60 62 64 66 67 68 70 73 76 78 79 80 83 89 95 98 101 103 104 102 100 98
211 211 212 212 213 212 215 220 225 232 239 245 249 245 235 232 236 232 225 220 217 219 227 235 249 270 301 351 16 14 27 50 51 47 44 43 49 58 58 53 49 46 45 45 46 49 51 50 47 46 46 47 49 50 51 52 55 58 61 60 58 56 56 58 61 63 67 71 75 76 75 79 85 87 86 86 90 95 99 103 106 104 102 100 99
210 213 214 215 215 215 216 218 223 228 234 239 245 249 244 236 236 241 239 234 229 226 229 232 237 254 274 305 323 328 314 332 59 51 50 49 51 60 61 55 48 44 43 43 44 46 49 50 48 45 44 45 47 50 51 52 53 56 62 65 65 63 61 60 63 67 70 74 78 77 75 78 85 90 91 89 90 95 99 105 107 104 101 102 102
213 217 218 218 218 218 218 220 224 228 232 236 240 245 247 243 239 240 242 241 238 237 239 240 241 243 255 323 320 306 230 253 321 49 49 46 50 62 66 59 48 40 38 38 39 41 43 46 47 45 43 43 45 48 52 54 55 55 59 65 69 71 69 67 68 70 73 76 78 79 80 81 83 87 89 88 91 97 102 105 107 102 101 104 104
216 218 217 219 221 221 220 221 224 228 231 233 236 238 243 245 242 240 242 243 241 240 243 246 250 253 256 289 313 348 133 303 311 70 50 26 27 61 72 67 50 34 28 30 31 34 37 39 42 45 44 43 42 44 49 55 59 59 60 64 70 74 76 75 75 76 77 77 79 83 89 90 87 88 91 93 96 102 105 107 107 103 101 102 103
214 216 217 220 224 225 224 225 227 231 232 232 235 236 237 240 243 242 242 243 243 243 246 248 251 256 258 267 284 291 283 289 279 243 12 8 12 37 60 67 53 32 18 16 20 24 27 30 33 38 41 41 41 42 46 51 57 62 66 69 72 76 79 80 79 79 80 80 81 83 89 94 95 97 102 102 102 105 108 108 107 105 103 102 101
215 218 222 224 225 225 226 229 233 236 236 234 235 239 239 240 242 245 245 245 244 244 246 248 251 255 259 262 267 275 277 277 277 274 290 320 334 339 342 7 34 23 8 2 6 11 15 20 24 27 33 37 37 37 40 46 52 59 67 73 76 79 82 84 84 82 81 81 82 84 87 91 95 100 106 107 106 110 112 112 111 110 109 108 104
222 223 224 224 223 223 226 229 232 236 237 235 234 238 241 242 242 245 248 249 248 247 247 248 250 254 258 262 263 267 271 272 275 277 280 289 302 310 312 308 315 339 350 345 347 353 360 9 14 17 23 29 31 29 30 38 48 58 66 73 78 82 83 86 87 85 85 86 85 86 86 89 90 94 100 106 110 115 121 123 122 121 120 116 110
228 227 225 226 225 223 225 229 232 234 234 235 235 236 240 242 242 243 246 250 251 251 250 249 250 252 256 262 263 264 266 269 272 275 276 280 287 295 299 297 295 298 308 314 322 332 340 350 360 5 12 19 24 25 24 28 37 51 65 73 79 85 86 87 87 86 87 87 88 88 89 92 93 92 95 101 110 118 128 134 134 132 130 126 121
228 228 227 229 230 228 227 228 231 232 231 234 237 238 237 239 242 242 244 249 251 251 253 253 252 254 257 260 261 262 263 265 268 271 273 277 279 283 287 291 291 290 289 285 285 303 316 326 335 341 350 359 10 18 21 22 23 32 50 66 79 88 90 91 90 88 86 84 84 83 84 88 94 98 97 99 103 112 126 139 146 147 142 134 131
229 230 230 229 229 229 227 227 228 229 230 233 237 238 236 238 242 241 240 245 249 249 251 254 254 255 258 257 256 258 261 262 263 265 268 271 276 278 279 280 284 286 286 279 272 276 290 302 311 316 321 325 333 350 10 17 18 21 28 42 68 84 92 95 96 94 92 87 81 78 75 73 80 89 94 96 101 108 122 138 151 159 160 150 143
226 229 230 228 226 226 225 225 226 228 230 233 234 235 238 239 240 238 237 242 246 246 250 254 253 253 253 252 254 258 259 259 260 262 263 265 269 273 275 276 278 280 280 277 272 271 276 284 293 299 299 297 300 310 328 350 1 11 16 21 39 65 87 96 98 100 98 91 77 69 67 65 64 64 68 78 90 103 120 142 161 173 181 183 177
219 220 224 226 226 226 226 226 228 230 232 234 234 238 241 241 238 236 236 239 241 244 248 251 252 254 254 254 255 257 258 260 262 262 262 263 264 266 269 273 274 274 274 273 272 270 270 273 278 285 288 288 291 299 303 303 294 296 323 347 6 29 79 93 99 108 109 110 99 73 73 74 72 65 65 75 85 98 111 140 182 203 218 227 228
214 215 219 222 224 226 228 230 232 233 234 235 236 239 239 236 233 234 236 238 240 241 243 245 250 254 254 252 253 255 257 260 261 262 263 263 262 263 264 267 268 269 271 272 272 270 269 268 270 274 279 282 286 290 292 292 288 279 270 264 272 280 242 98 125 141 119 103 103 97 94 94 91 88 91 94 103 118 133 157 202 231 250 258 257
209 211 216 219 220 223 226 229 231 233 234 236 237 237 237 234 230 231 235 237 238 239 239 242 247 248 247 246 248 250 254 258 259 261 263 262 261 261 261 260 261 264 268 271 271 270 268 267 267 268 272 276 279 281 282 285 286 281 271 260 256 253 253 247 224 201 138 102 108 102 97 91 83 88 96 101 109 122 136 155 176 206 237 258 262
211 212 216 217 216 218 221 223 225 229 231 231 232 233 235 235 232 231 232 231 233 237 239 242 244 243 241 244 246 248 251 255 259 261 262 262 261 260 259 259 260 262 265 268 270 270 270 269 268 268 268 270 272 274 274 275 277 277 274 266 257 252 250 246 237 227 192 171 181 138 81 50 31 49 87 100 114 126 135 137 136 134 149 203 255
213 213 217 219 215 214 218 219 221 225 227 226 226 226 228 231 232 230 227 226 230 236 236 237 237 235 234 238 243 246 249 251 254 256 260 262 263 262 262 262 262 263 264 266 268 271 272 273 271 270 269 269 268 267 267 269 268 268 269 267 262 256 250 247 245 240 232 225 228 239 270 308 325 318 236 184 149 142 151 146 133 126 124 124 127
218 215 218 221 217 215 218 221 221 223 225 224 223 223 224 229 231 229 226 227 232 232 229 230 233 233 233 234 239 246 250 252 253 255 258 261 262 263 264 263 263 264 267 268 268 269 271 272 271 270 270 270 267 262 261 264 267 265 264 264 263 259 253 251 250 247 245 246 248 255 269 289 312 313 263 216 195 179 181 175 159 149 142 136 129
222 220 219 220 218 217 217 219 220 221 224 224 224 224 226 229 231 230 228 229 231 228 227 231 235 236 234 233 238 245 251 254 255 255 258 260 260 261 262 264 267 269 269 270 269 269 269 269 269 269 270 270 269 265 262 261 264 266 267 265 262 259 255 252 251 250 250 252 253 257 266 278 296 306 288 251 234 224 214 206 192 176 166 162 159
222 223 223 222 221 220 218 217 218 219 220 222 224 226 227 229 231 231 229 229 229 230 234 238 241 242 240 238 241 246 250 253 253 252 254 258 259 261 262 266 270 271 270 270 271 268 267 268 269 268 268 269 268 267 266 264 263 264 266 266 262 258 254 251 250 251 251 252 254 256 261 267 277 288 289 277 263 252 240 230 224 221 216 211 206
219 219 222 224 222 220 219 219 219 217 215 217 221 223 225 228 230 230 230 231 233 237 241 242 244 245 244 244 246 248 250 251 251 250 250 252 256 259 262 265 267 267 267 268 270 268 267 270 271 269 269 270 268 267 268 268 266 264 263 263 262 259 256 253 250 250 251 252 253 254 256 259 265 272 277 280 277 269 258 248 244 246 249 251 252
220 216 218 222 222 220 220 221 222 221 220 219 220 221 223 225 227 230 232 234 237 240 242 242 243 244 244 244 245 247 248 249 250 250 249 249 251 254 257 260 262 263 264 265 267 268 267 268 271 270 270 270 269 268 268 268 269 267 263 260 260 259 258 256 252 249 249 251 251 251 253 254 257 261 265 271 278 278 270 261 257 260 263 265 265
224 219 218 222 223 223 224 224 225 226 227 227 225 225 226 227 228 230 232 234 236 239 240 240 241 243 243 243 244 244 246 248 249 250 249 248 248 250 253 256 258 259 260 261 263 264 263 263 266 268 268 269 268 266 264 264 268 269 265 261 261 260 258 256 255 251 248 249 249 250 252 252 254 256 259 265 274 278 276 271 268 267 268 270 272
227 224 221 222 223 223 225 227 228 229 230 231 231 231 231 232 233 233 233 233 235 236 237 239 240 241 242 243 243 243 244 246 248 249 249 249 249 250 252 253 254 255 256 258 259 260 260 260 262 264 265 264 264 264 263 262 263 265 265 263 263 262 259 255 254 254 250 248 248 248 250 252 254 255 256 260 268 273 274 273 272 272 272 273 276
228 226 223 223 224 224 224 227 229 230 231 233 233 233 234 235 236 236 235 236 235 235 235 237 239 240 240 240 241 243 244 246 246 248 250 252 252 252 252 251 252 252 253 254 256 258 260 260 261 261 259 256 258 264 265 263 261 260 261 262 263 263 260 256 254 253 251 249 248 248 249 252 254 256 257 258 262 267 269 270 270 272 273 274 275
229 228 225 224 224 225 226 226 227 229 231 233 234 235 235 235 236 237 237 238 237 236 236 237 237 238 239 239 240 241 243 244 246 247 250 252 252 251 250 249 249 250 251 252 253 256 258 259 259 259 256 252 257 264 263 259 259 258 257 259 261 262 261 259 256 255 252 251 250 249 249 252 254 256 258 259 260 262 265 266 267 268 270 271 271
232 232 230 227 226 226 228 229 229 230 231 233 235 236 236 236 237 238 239 239 238 237 238 239 237 236 237 239 239 240 241 242 244 247 249 251 251 249 247 247 247 249 249 250 252 254 255 255 255 258 258 254 255 259 257 254 257 259 258 258 259 260 261 261 260 258 256 254 253 251 251 253 255 256 258 260 261 262 262 262 263 264 266 267 267
234 235 235 233 232 231 232 232 233 234 234 234 236 238 239 239 239 239 240 241 241 240 239 240 239 237 236 237 238 239 241 242 245 247 248 248 249 248 247 246 246 247 248 248 250 253 254 252 252 255 257 256 254 254 252 250 255 260 262 261 261 261 261 262 262 262 261 258 256 254 254 255 257 258 259 259 261 262 262 261 261 261 262 263 264
235 236 237 237 237 236 236 236 237 238 238 238 238 239 241 242 242 242 242 242 243 243 242 241 240 239 239 238 238 238 239 240 243 245 246 246 246 246 246 246 246 247 247 248 250 252 252 251 250 250 252 254 254 255 255 254 256 260 263 263 263 263 262 262 262 263 263 262 258 255 254 255 256 258 260 260 261 262 263 263 262 261 261 261 262
235 236 237 238 239 238 238 239 239 239 240 241 241 241 241 243 244 244 244 244 244 244 244 243 241 240 240 240 240 239 238 238 239 241 243 244 244 244 244 245 246 247 249 250 252 253 252 250 249 249 249 250 250 253 256 258 259 259 260 261 262 263 263 262 261 261 262 262 259 256 254 255 257 259 260 261 262 263 264 265 265 264 263 262 263
236 236 237 238 238 239 239 239 240 240 241 241 242 242 242 242 244 244 245 245 245 245 244 244 243 241 240 240 241 242 241 239 237 238 241 242 243 243 244 244 246 247 250 252 253 253 252 250 250 250 250 250 250 251 254 257 258 257 258 259 261 262 262 260 259 258 259 259 259 257 256 257 258 260 261 263 264 265 265 266 267 266 266 265 266
235 237 237 238 239 239 239 239 240 240 240 241 241 242 242 242 243 244 244 245 245 245 245 244 244 243 242 241 241 243 244 242 239 238 240 243 243 244 244 244 245 247 248 250 251 251 250 250 250 250 251 251 251 252 252 254 255 255 256 257 258 260 261 261 259 258 257 256 257 257 259 260 261 261 263 265 267 267 266 266 267 267 267 267 268
237 237 238 239 239 239 240 240 240 241 241 241 242 242 242 241 242 243 244 244 245 246 246 245 245 245 244 243 242 242 244 245 243 241 241 243 244 243 244 245 246 247 248 248 249 249 249 249 250 250 251 251 251 252 252 253 253 254 255 257 258 259 260 261 260 260 259 258 257 256 257 258 260 262 265 267 267 267 267 267 267 267 267 267 267
240 240 240 240 240 240 240 240 241 241 242 243 243 243 243 243 243 243 244 244 245 245 245 246 246 246 246 246 245 244 243 244 245 245 245 246 244 242 242 243 245 247 248 249 250 250 250 250 250 251 252 252 252 252 253 254 254 254 254 254 256 258 260 260 260 260 260 260 260 259 258 258 258 259 262 264 265 266 267 267 268 267 267 267 267
239 240 241 241 241 241 241 241 241 242 242 243 244 244 244 244 244 244 244 245 245 246 246 246 246 247 247 247 247 247 245 244 244 245 247 249 248 246 243 242 243 244 246 248 249 250 250 250 250 250 251 252 252 253 254 254 255 256 256 255 255 256 257 259 259 258 258 259 260 261 261 261 261 260 261 262 263 265 266 267 267 267 267 267 267
Height
11032 11032 11032 11031 11031 11030 11029 11028 11027 11027 11026 11026 11025 11024 11024 11023 11022 11022 11022 11021 11020 11019 11018 11016 11015 11014 11013 11012 11010 11009 11007 11005 11004 11002 11001 10999 10999 10997 10996 10995 10993 10992 10991 10990 10989 10988 10987 10986 10986 10985 10985 10984 10984 10984 10984 10984 10985 10985 10984 10983 10983 10982 10982 10982 10981 10981 10982 10981 10981 10980 10980 10979 10979 10978 10977 10975 10974 10973 10971 10970 10968 10967 10965 10962 10960
11032 11033 11033 11032 11032 11031 11030 11030 11029 11029 11028 11027 11027 11026 11025 11024 11024 11023 11023 11023 11022 11021 11020 11018 11017 11016 11015 11014 11013 11012 11010 11008 11007 11005 11004 11002 11001 11000 10998 10997 10995 10994 10993 10992 10991 10990 10989 10988 10988 10987 10987 10986 10986 10986 10986 10986 10986 10986 10986 10985 10985 10984 10984 10984 10984 10984 10984 10983 10982 10982 10982 10981 10981 10980 10979 10977 10976 10974 10973 10971 10970 10969 10967 10964 10962
11032 11033 11033 11033 11033 11032 11032 11031 11031 11030 11030 11029 11029 11028 11027 11026 11026 11025 11025 11024 11023 11022 11021 11020 11019 11018 11017 11017 11016 11015 11013 11012 11010 11009 11007 11005 11004 11003 11001 10999 10998 10996 10995 10994 10993 10992 10991 10991 10990 10990 10989 10988 10988 10988 10988 10988 10988 10988 10987 10987 10986 10986 10985 10985 10986 10986 10986 10985 10984 10984 10983 10983 10983 10982 10981 10979 10978 10976 10975 10973 10972 10971 10969 10967 10964
11032 11033 11033 11034 11034 11033 11033 11033 11032 11032 11031 11031 11030 11030 11029 11028 11028 11027 11026 11026 11025 11024 11023 11022 11021 11020 11019 11018 11018 11017 11016 11015 11013 11012 11010 11009 11008 11006 11004 11002 11001 11000 10998 10997 10996 10995 10994 10993 10993 10992 10991 10990 10990 10990 10990 10990 10990 10989 10989 10988 10988 10987 10987 10987 10987 10988 10987 10987 10986 10986 10985 10985 10984 10983 10982 10981 10979 10977 10977 10976 10974 10973 10971 10968 10966
11032 11033 11033 11034 11034 11034 11034 11034 11033 11033 11032 11032 11032 11031 11031 11030 11029 11029 11028 11027 11026 11026 11025 11024 11023 11022 11021 11020 11020 11019 11018 11017 11016 11015 11013 11012 11011 11010 11008 11006 11005 11003 11002 11000 10999 10998 10997 10996 10995 10994 10993 10992 10992 10992 10992 10991 10991 10991 10990 10990 10989 10989 10988 10988 10988 10989 10989 10988 10988 10988 10987 10986 10985 10984 10983 10982 10980 10979 10978 10978 10977 10975 10972 10970 10968
11032 11032 11033 11034 11034 11035 11035 11035 11034 11034 11034 11033 11033 11033 11032 11032 11031 11030 11030 11029 11028 11027 11026 11026 11025 11024 11023 11022 11022 11021 11020 11020 11018 11017 11016 11015 11014 11013 11011 11010 11008 11007 11005 11003 11002 11000 10999 10998 10997 10996 10995 10994 10994 10993 10993 10992 10992 10992 10991 10991 10991 10990 10990 10990 10990 10990 10990 10990 10990 10990 10989 10988 10986 10985 10984 10983 10981 10980 10979 10979 10978 10976 10974 10972 10970
11031 11032 11033 11034 11035 11035 11035 11035 11035 11035 11035 11034 11034 11034 11034 11033 11032 11032 11031 11031 11030 11029 11028 11028 11027 11026 11025 11024 11024 11023 11023 11022 11021 11020 11019 11017 11017 11015 11014 11013 11011 11009 11008 11006 11005 11003 11001 11000 10999 10998 10997 10996 10995 10994 10994 10993 10993 10993 10993 10992 10992 10992 10992 10992 10991 10991 10991 10991 10991 10991 10990 10989 10988 10987 10986 10984 10983 10982 10981 10981 10979 10978 10976 10975 10973
11031 11032 11033 11034 11035 11035 11036 11036 11036 11036 11036 11035 11035 11035 11035 11034 11034 11033 11033 11032 11031 11031 11030 11030 11029 11028 11027 11026 11026 11025 11024 11023 11023 11022 11021 11020 11018 11017 11016 11015 11014 11012 11011 11009 11007 11006 11004 11003 11001 11000 10999 10998 10997 10996 10995 10995 10995 10995 10994 10994 10994 10994 10994 10993 10993 10993 10993 10993 10993 10992 10991 10991 10990 10990 10988 10986 10986 10986 10985 10983 10981 10980 10979 10978 10976
11029 11031 11032 11033 11035 11035 11036 11037 11037 11037 11037 11036 11036 11036 11036 11035 11035 11034 11034 11033 11033 11032 11032 11031 11030 11030 11029 11028 11027 11027 11026 11025 11025 11024 11023 11022 11020 11019 11019 11017 11016 11015 11014 11012 11010 11009 11007 11006 11004 11003 11002 11001 11000 10999 10998 10997 10997 10997 10996 10996 10996 10996 10996 10996 10995 10995 10995 10994 10994 10993 10992 10992 10992 10990 10989 10988 10988 10988 10988 10986 10984 10981 10981 10981 10980
11028 11029 11031 11032 11034 11035 11036 11037 11037 11037 11037 11037 11037 11037 11037 11036 11036 11035 11035 11035 11034 11034 11033 11032 11032 11031 11030 11030 11029 11028 11027 11027 11027 11026 11025 11024 11023 11022 11021 11020 11019 11018 11017 11015 11013 11012 11010 11009 11008 11006 11005 11004 11003 11002 11001 11000 10999 10999 10999 10998 10998 10998 10998 10998 10997 10997 10996 10996 10995 10995 10994 10993 10993 10992 10991 10990 10990 10989 10989 10989 10987 10984 10984 10984 10984
11027 11028 11029 11031 11033 11034 11035 11036 11037 11038 11038 11038 11038 11038 11038 11037 11037 11036 11036 11036 11035 11035 11034 11034 11033 11033 11032 11031 11030 11030 11029 11029 11028 11028 11027 11027 11026 11025 11024 11023 11022 11021 11020 11018 11017 11015 11014 11012 11011 11009 11008 11007 11006 11005 11004 11003 11002 11002 11001 11001 11001 11001 11000 11000 10999 10999 10998 10997 10997 10996 10996 10995 10995 10994 10993 10992 10992 10991 10990 10990 10990 10988 10988 10987 10987
11026 11027 11028 11030 11032 11033 11035 11036 11037 11038 11038 11039 11039 11039 11039 11038 11038 11037 11037 11037 11036 11036 11036 11035 11035 11034 11034 11033 11032 11032 11031 11031 11031 11030 11030 11029 11029 11028 11026 11026 11025 11024 11023 11021 11020 11019 11017 11015 11014 11012 11011 11010 11009 11008 11007 11006 11005 11004 11004 11004 11003 11003 11002 11002 11001 11000 11000 10999 10999 10998 10998 10997 10997 10997 10996 10994 10994 10994 10993 10992 10992 10992 10991 10990 10990
11024 11026 11027 11029 11031 11032 11034 11035 11036 11037 11038 11039 11040 11040 11040 11039 11039 11038 11038 11038 11037 11037 11037 11036 11036 11036 11036 11035 11034 11034 11034 11033 11033 11032 11031 11031 11031 11030 11029 11028 11027 11026 11025 11024 11023 11021 11020 11019 11017 11015 11014 11012 11011 11010 11009 11008 11007 11007 11006 11005 11004 11004 11003 11003 11003 11002 11002 11001 11000 11000 11000 11000 11000 10999 10998 10997 10996 10997 10997 10996 10995 10996 10995 10994 10993
11022 11025 11026 11028 11030 11031 11033 11034 11035 11036 11037 11039 11040 11040 11040 11040 11040 11040 11039 11039 11038 11038 11038 11038 11037 11037 11037 11037 11036 11036 11035 11035 11034 11034 11033 11033 11033 11032 11031 11030 11029 11028 11027 11026 11025 11024 11023 11022 11020 11018 11017 11015 11014 11013 11011 11010 11009 11009 11008 11007 11006 11005 11005 11004 11004 11004 11003 11003 11002 11002 11002 11002 11002 11002 11001 11000 10999 11000 11000 10999 10999 10998 10998 10997 10997
11020 11022 11025 11027 11028 11030 11031 11032 11034 11035 11036 11038 11039 11040 11040 11041 11041 11041 11040 11040 11039 11039 11038 11038 11038 11038 11038 11038 11038 11037 11037 11036 11036 11036 11035 11034 11034 11033 11033 11032 11031 11030 11029 11028 11027 11026 11025 11024 11023 11021 11019 11018 11017 11015 11014 11013 11012 11011 11010 11009 11008 11007 11007 11006 11006 11005 11005 11005 11004 11004 11004 11004 11004 11004 11003 11003 11002 11003 11003 11002 11001 11001 11001 11001 11000
11018 11020 11022 11024 11026 11028 11029 11031 11032 11033 11035 11036 11038 11040 11040 11041 11041 11041 11041 11041 11040 11040 11039 11039 11039 11039 11039 11039 11039 11038 11038 11038 11037 11037 11037 11036 11035 11034 11034 11033 11033 11032 11031 11030 11029 11028 11027 11026 11025 11024 11022 11021 11019 11018 11017 11015 11014 11013 11012 11011 11011 11010 11010 11009 11008 11008 11007 11007 11007 11007 11007 11006 11006 11006 11006 11006 11006 11006 11005 11005 11004 11004 11004 11004 11004
11016 11018 11020 11022 11024 11025 11027 11028 11030 11031 11033 11035 11037 11039 11040 11041 11041 11041 11041 11041 11041 11041 11040 11040 11039 11040 11040 11040 11040 11039 11039 11039 11039 11038 11038 11037 11037 11036 11036 11035 11034 11034 11033 11032 11031 11030 11029 11028 11027 11026 11025 11024 11023 11021 11020 11019 11017 11016 11015 11014 11014 11013 11012 11011 11011 11010 11010 11009 11009 11009 11009 11009 11009 11010 11010 11009 11009 11008 11007 11007 11007 11007 11008 11007 11007
11013 11015 11017 11019 11020 11022 11024 11026 11027 11029 11031 11033 11035 11037 11039 11040 11040 11041 11041 11041 11041 11041 11041 11040 11040 11040 11040 11040 11040 11040 11040 11040 11039 11039 11039 11039 11039 11038 11037 11036 11035 11035 11035 11034 11034 11033 11031 11030 11030 11029 11028 11027 11026 11025 11023 11022 11021 11019 11018 11017 11017 11016 11015 11014 11013 11013 11012 11011 11011 11011 11012 11012 11012 11012 11012 11012 11011 11010 11010 11010 11010 11010 11010 11010 11009
11011 11013 11015 11016 11017 11019 11021 11023 11024 11026 11028 11031 11033 11035 11037 11039 11040 11040 11040 11041 11041 11041 11041 11041 11041 11041 11041 11041 11041 11041 11040 11040 11040 11040 11040 11040 11040 11040 11039 11038 11037 11037 11037 11036 11036 11035 11034 11033 11032 11031 11030 11029 11028 11027 11026 11025 11024 11023 11021 11020 11020 11019 11018 11017 11016 11015 11015 11014 11014 11013 11013 11013 11013 11014 11014 11013 11013 11013 11012 11013 11013 11013 11013 11012 11012
11011 11013 11013 11014 11015 11017 11018 11020 11022 11024 11026 11028 11031 11033 11035 11037 11038 11039 11039 11039 11040 11041 11041 11041 11041 11041 11042 11042 11041 11041 11040 11040 11040 11040 11040 11041 11041 11040 11040 11039 11039 11039 11038 11038 11037 11037 11036 11035 11034 11034 11033 11032 11031 11030 11028 11027 11026 11025 11024 11024 11023 11022 11021 11020 11019 11018 11017 11017 11016 11016 11015 11015 11015 11015 11015 11015 11015 11015 11015 11016 11016 11016 11015 11014 11013
11010 11010 11010 11010 11012 11014 11015 11017 11019 11021 11023 11026 11028 11030 11032 11034 11035 11036 11037 11037 11038 11039 11040 11041 11042 11042 11042 11042 11042 11041 11041 11040 11041 11041 11041 11041 11041 11040 11040 11040 11040 11040 11040 11039 11039 11038 11038 11037 11037 11036 11035 11034 11033 11032 11031 11030 11029 11028 11027 11026 11026 11025 11024 11023 11022 11021 11020 11019 11018 11018 11018 11018 11017 11017 11017 11017 11017 11018 11018 11017 11017 11017 11017 11016 11015
11002 11004 11005 11007 11009 11012 11013 11014 11016 11018 11021 11023 11025 11027 11029 11030 11032 11033 11034 11035 11036 11038 11039 11040 11041 11041 11042 11042 11042 11042 11041 11041 11041 11041 11041 11041 11041 11041 11040 11040 11041 11041 11041 11040 11040 11039 11039 11039 11038 11038 11037 11036 11035 11034 11033 11032 11031 11030 11029 11029 11028 11027 11026 11025 11024 11023 11022 11021 11021 11020 11020 11020 11020 11020 11019 11019 11019 11019 11019 11019 11019 11018 11018 11018 11018
10998 11002 11004 11005 11007 11008 11009 11011 11014 11015 11018 11021 11023 11024 11026 11028 11029 11031 11032 11033 11034 11036 11037 11038 11040 11040 11041 11041 11041 11041 11041 11041 11040 11040 11040 11040 11041 11041 11041 11041 11041 11041 11041 11041 11040 11040 11040 11040 11039 11039 11038 11038 11037 11036 11035 11034 11033 11032 11031 11030 11030 11029 11028 11027 11026 11025 11024 11024 11023 11022 11022 11022 11022 11022 11022 11021 11021 11021 11020 11020 11020 11020 11020 11020 11019
10997 11000 11001 11001 11003 11004 11005 11008 11010 11012 11015 11018 11020 11022 11024 11026 11028 11029 11030 11032 11033 11034 11035 11037 11038 11039 11039 11040 11040 11040 11040 11040 11040 11040 11040 11040 11040 11041 11041 11041 11041 11041 11042 11042 11041 11041 11041 11040 11040 11040 11039 11039 11038 11038 11037 11036 11035 11034 11033 11032 11031 11031 11030 11029 11028 11027 11026 11025 11025 11024 11024 11023 11023 11023 11023 11023 11023 11022 11022 11021 11021 11021 11021 11021 11021
10994 10996 10997 10998 11000 11001 11003 11005 11007 11009 11012 11015 11016 11019 11021 11023 11025 11026 11028 11030 11031 11033 11034 11035 11036 11037 11038 11038 11038 11038 11039 11039 11039 11039 11039 11040 11040 11040 11040 11041 11041 11041 11042 11042 11042 11041 11041 11041 11040 11040 11040 11039 11039 11039 11038 11038 11037 11036 11035 11034 11033 11032 11031 11030 11030 11029 11028 11027 11026 11026 11025 11024 11024 11024 11024 11024 11024 11024 11023 11023 11022 11022 11022 11022 11022
10992 10994 10995 10996 10997 10999 11000 11002 11003 11006 11009 11012 11014 11016 11018 11020 11022 11024 11026 11027 11029 11030 11032 11033 11034 11035 11036 11036 11036 11036 11037 11037 11037 11038 11038 11038 11039 11039 11039 11040 11040 11040 11041 11041 11042 11041 11041 11041 11041 11040 11040 11040 11039 11039 11039 11038 11038 11037 11037 11036 11035 11034 11033 11032 11031 11030 11030 11029 11028 11027 11027 11026 11025 11024 11024 11024 11024 11024 11024 11024 11024 11024 11023 11023 11023
10991 10993 10995 10995 10995 10996 10997 10999 11001 11003 11005 11009 11012 11013 11015 11017 11019 11021 11023 11024 11026 11028 11029 11031 11032 11033 11033 11033 11033 11034 11034 11034 11035 11035 11036 11037 11037 11038 11038 11038 11039 11040 11040 11041 11041 11041 11041 11041 11040 11040 11040 11039 11039 11039 11039 11038 11038 11038 11037 11037 11036 11035 11034 11033 11033 11032 11031 11030 11030 11029 11028 11028 11027 11026 11025 11025 11024 11024 11024 11024 11024 11024 11024 11024 11024
10988 10991 10994 10993 10993 10993 10994 10995 10998 10999 11002 11005 11008 11009 11011 11014 11016 11018 11020 11021 11023 11025 11026 11027 11028 11029 11030 11029 11029 11030 11030 11030 11031 11032 11033 11034 11035 11036 11036 11037 11038 11038 11039 11039 11040 11040 11041 11040 11040 11039 11039 11038 11038 11038 11038 11038 11038 11038 11037 11037 11037 11037 11036 11034 11034 11033 11032 11032 11032 11031 11030 11030 11029 11028 11028 11027 11026 11025 11025 11025 11024 11024 11024 11024 11024
10980 10984 10988 10989 10989 10990 10991 10993 10994 10996 10999 11002 11003 11005 11008 11011 11014 11015 11016 11017 11019 11021 11023 11024 11024 11025 11025 11025 11024 11024 11025 11025 11027 11028 11029 11030 11032 11033 11034 11035 11036 11036 11037 11037 11038 11039 11039 11040 11039 11039 11038 11038 11038 11038 11038 11038 11038 11037 11037 11037 11037 11037 11036 11035 11035 11033 11032 11032 11032 11031 11031 11030 11030 11030 11029 11028 11027 11027 11026 11026 11025 11025 11025 11025 11025
10971 10975 10977 10979 10981 10984 10987 10989 10990 10993 10996 10998 11000 11002 11005 11008 11011 11011 11010 11011 11014 11017 11019 11020 11021 11020 11018 11017 11016 11017 11018 11019 11021 11023 11024 11026 11028 11030 11031 11032 11033 11033 11034 11035 11036 11037 11037 11038 11038 11038 11038 11037 11037 11037 11037 11037 11037 11037 11036 11036 11037 11037 11036 11035 11034 11033 11032 11031 11030 11031 11031 11030 11030 11029 11028 11027 11026 11026 11026 11026 11026 11026 11026 11025 11025
10961 10965 10967 10969 10973 10977 10980 10983 10985 10986 10989 10993 10996 10998 11001 11005 11007 11006 11006 11008 11010 11013 11014 11015 11015 11013 11011 11011 11010 11010 11012 11014 11016 11018 11020 11021 11023 11025 11027 11029 11029 11030 11031 11032 11033 11034 11034 11035 11035 11036 11036 11036 11036 11036 11036 11036 11036 11036 11035 11035 11035 11035 11035 11035 11034 11032 11032 11031 11030 11030 11030 11030 11030 11029 11028 11027 11026 11025 11025 11025 11025 11025 11025 11025 11025
10956 10958 10960 10963 10967 10970 10971 10973 10975 10975 10978 10983 10987 10991 10995 10998 11001 11003 11004 11004 11004 11007 11009 11010 11009 11009 11010 11009 11007 11006 11008 11010 11013 11015 11016 11017 11019 11021 11023 11025 11026 11028 11029 11029 11030 11030 11031 11032 11033 11033 11034 11035 11035 11035 11034 11034 11034 11034 11034 11034 11034 11034 11034 11033 11032 11032 11032 11031 11030 11030 11030 11030 11030 11029 11029 11028 11027 11026 11026 11025 11025 11024 11024 11024 11024
10951 10952 10954 10957 10960 10962 10963 10965 10966 10968 10971 10975 10978 10981 10984 10987 10990 10995 10997 10997 10999 11003 11005 11004 11003 11004 11007 11006 11003 11002 11005 11008 11011 11013 11013 11014 11015 11017 11019 11022 11024 11025 11026 11027 11027 11027 11028 11029 11030 11029 11030 11031 11032 11032 11032 11031 11032 11032 11032 11031 11032 11032 11031 11031 11030 11030 11031 11030 11030 11029 11029 11029 11029 11029 11028 11028 11027 11027 11026 11025 11024 11024 11023 11023 11023
10944 10946 10948 10950 10953 10955 10956 10958 10959 10962 10965 10968 10970 10972 10974 10976 10980 10985 10988 10990 10994 10997 10998 10996 10995 10998 11000 11000 10999 11000 11002 11005 11008 11009 11010 11011 11012 11013 11015 11018 11019 11021 11023 11024 11025 11025 11025 11026 11026 11026 11026 11027 11028 11029 11029 11029 11029 11029 11029 11029 11029 11029 11029 11029 11028 11028 11028 11029 11029 11028 11028 11028 11028 11027 11027 11027 11027 11026 11026 11025 11024 11023 11022 11022 11022
10938 10941 10942 10944 10945 10945 10947 10949 10952 10955 10958 10960 10963 10965 10967 10970 10973 10977 10980 10983 10986 10988 10989 10988 10989 10991 10993 10995 10996 10997 10999 11001 11004 11005 11006 11006 11007 11009 11010 11012 11014 11017 11019 11020 11021 11022 11022 11022 11023 11023 11023 11023 11024 11025 11025 11026 11026 11025 11025 11025 11026 11026 11026 11026 11025 11025 11025 11026 11027 11027 11026 11026 11026 11026 11026 11026 11026 11026 11025 11024 11024 11023 11022 11021 11021
10933 10937 10937 10936 10936 10935 10936 10939 10943 10947 10949 10952 10955 10959 10961 10963 10966 10969 10972 10975 10978 10980 10982 10982 10983 10985 10987 10989 10991 10993 10995 10997 10999 11000 11001 11001 11002 11003 11005 11007 11010 11012 11014 11016 11017 11018 11018 11018 11019 11019 11018 11018 11019 11020 11020 11021 11022 11022 11022 11021 11021 11022 11023 11022 11021 11021 11022 11023 11024 11024 11024 11024 11024 11024 11024 11024 11024 11024 11023 11023 11022 11022 11021 11021 11020
10927 10928 10925 10923 10923 10924 10926 10929 10933 10937 10940 10943 10947 10951 10954 10957 10959 10962 10964 10967 10969 10972 10975 10976 10977 10978 10980 10983 10985 10987 10989 10991 10993 10994 10995 10995 10996 10997 10999 11003 11006 11007 11009 11011 11012 11013 11015 11015 11015 11013 11012 11012 11014 11015 11014 11015 11016 11017 11017 11017 11016 11017 11018 11018 11018 11018 11018 11018 11020 11020 11021 11021 11021 11021 11021 11021 11021 11021 11021 11021 11020 11020 11019 11019 11019
10910 10911 10910 10908 10911 10915 10916 10919 10924 10928 10931 10935 10938 10941 10945 10949 10953 10955 10957 10959 10961 10964 10967 10970 10971 10972 10974 10976 10978 10981 10983 10985 10986 10987 10987 10988 10989 10990 10994 10997 11000 11002 11004 11005 11007 11009 11012 11013 11010 11006 11006 11007 11008 11009 11010 11009 11010 11011 11012 11011 11011 11012 11013 11014 11014 11014 11014 11014 11015 11016 11016 11017 11017 11016 11017 11017 11018 11018 11018 11018 11018 11017 11016 11016 11016
10889 10893 10897 10899 10902 10905 10907 10910 10914 10918 10922 10926 10929 10933 10937 10941 10944 10947 10949 10951 10953 10955 10959 10962 10964 10966 10967 10969 10971 10973 10976 10978 10979 10979 10980 10980 10980 10983 10987 10991 10994 10996 10998 11000 11002 11004 11007 11009 11007 11002 11001 11002 11003 11004 11004 11004 11004 11004 11005 11005 11005 11006 11008 11010 11010 11009 11009 11009 11009 11010 11011 11012 11012 11012 11012 11012 11013 11014 11014 11014 11014 11014 11013 11013 11012
10871 10880 10888 10890 10892 10895 10898 10901 10905 10908 10913 10917 10921 10925 10928 10931 10934 10937 10939 10942 10945 10948 10950 10953 10956 10959 10961 10962 10964 10966 10968 10970 10971 10972 10971 10971 10973 10976 10980 10984 10986 10989 10991 10993 10995 10996 10999 11002 11001 10999 10998 10998 10997 10998 10998 10999 10999 10998 10998 10999 11000 11000 11002 11004 11005 11004 11004 11003 11004 11005 11006 11007 11007 11007 11007 11008 11009 11009 11010 11009 11009 11010 11010 11009 11009
10861 10871 10879 10881 10883 10886 10889 10892 10895 10899 10903 10907 10911 10914 10917 10920 10924 10927 10930 10933 10937 10941 10943 10945 10948 10951 10953 10955 10957 10958 10960 10962 10963 10964 10963 10963 10965 10968 10972 10975 10978 10981 10983 10984 10987 10989 10991 10994 10994 10993 10993 10993 10993 10993 10993 10993 10993 10992 10992 10993 10994 10994 10995 10997 10999 10999 10998 10997 10998 11000 11001 11001 11002 11002 11002 11003 11004 11004 11004 11004 11004 11005 11005 11005 11005
10854 10862 10867 10870 10873 10877 10880 10882 10886 10890 10894 10898 10901 10904 10907 10910 10914 10917 10921 10924 10929 10933 10935 10937 10940 10943 10945 10948 10950 10952 10954 10954 10954 10955 10955 10955 10957 10960 10963 10966 10969 10972 10974 10976 10979 10981 10984 10986 10987 10986 10986 10987 10988 10987 10987 10986 10986 10986 10987 10987 10988 10989 10989 10990 10992 10992 10992 10991 10992 10994 10995 10995 10996 10996 10996 10997 10998 10999 10999 10999 10999 10999 10999 10999 10999
10848 10852 10857 10860 10864 10868 10872 10875 10878 10881 10884 10888 10891 10894 10897 10901 10904 10907 10910 10914 10919 10923 10926 10929 10932 10934 10937 10940 10943 10945 10947 10947 10947 10947 10947 10948 10949 10952 10954 10956 10959 10963 10965 10967 10970 10973 10976 10978 10979 10980 10981 10982 10982 10981 10980 10979 10977 10978 10981 10982 10982 10983 10983 10983 10983 10984 10984 10985 10987 10988 10988 10988 10989 10990 10990 10991 10992 10993 10993 10993 10993 10993 10993 10993 10993
10840 10843 10847 10852 10856 10861 10865 10867 10869 10872 10875 10878 10882 10884 10887 10891 10894 10897 10900 10904 10908 10912 10916 10919 10922 10925 10928 10932 10935 10938 10939 10940 10939 10939 10940 10941 10941 10943 10945 10947 10950 10953 10956 10958 10961 10964 10967 10969 10971 10973 10975 10976 10977 10974 10973 10972 10971 10971 10973 10975 10975 10976 10977 10976 10976 10976 10977 10979 10981 10981 10981 10982 10982 10983 10984 10984 10985 10985 10986 10986 10986 10987 10987 10987 10987
10832 10834 10838 10842 10846 10851 10855 10858 10861 10864 10866 10870 10873 10876 10878 10881 10884 10887 10890 10893 10897 10901 10905 10909 10912 10915 10918 10922 10927 10929 10930 10931 10931 10931 10933 10934 10935 10935 10936 10938 10940 10943 10945 10949 10952 10955 10957 10959 10961 10962 10965 10968 10969 10964 10962 10963 10964 10964 10965 10966 10966 10968 10968 10969 10969 10970 10971 10973 10974 10974 10974 10975 10975 10976 10977 10977 10977 10977 10978 10979 10979 10979 10980 10980 10979
10823 10825 10828 10832 10836 10840 10844 10848 10851 10854 10857 10861 10864 10867 10870 10872 10875 10878 10880 10883 10887 10890 10894 10898 10901 10905 10907 10911 10916 10919 10921 10923 10924 10924 10925 10927 10927 10926 10927 10929 10931 10933 10935 10938 10942 10946 10948 10949 10950 10951 10954 10958 10958 10954 10952 10955 10957 10957 10957 10957 10958 10958 10959 10960 10962 10963 10965 10966 10965 10965 10966 10966 10967 10968 10969 10969 10970 10970 10970 10971 10971 10972 10972 10972 10972
10813 10815 10818 10822 10826 10830 10833 10836 10840 10843 10847 10850 10853 10857 10860 10862 10865 10868 10870 10873 10876 10880 10883 10887 10891 10894 10897 10900 10905 10907 10910 10913 10916 10916 10917 10918 10918 10917 10918 10920 10922 10923 10925 10928 10932 10935 10938 10939 10939 10940 10942 10946 10947 10945 10945 10947 10947 10947 10948 10948 10949 10950 10951 10952 10953 10955 10957 10957 10955 10955 10958 10959 10958 10959 10960 10961 10962 10962 10962 10962 10963 10963 10964 10964 10964
10804 10805 10808 10812 10816 10819 10822 10825 10828 10832 10835 10839 10842 10845 10848 10851 10854 10856 10859 10862 10865 10868 10872 10875 10879 10882 10886 10889 10893 10896 10897 10900 10905 10907 10908 10909 10910 10909 10910 10913 10914 10915 10917 10919 10921 10924 10927 10928 10929 10929 10931 10934 10935 10936 10936 10936 10936 10937 10939 10939 10940 10941 10941 10943 10943 10945 10947 10948 10946 10946 10949 10949 10949 10950 10951 10953 10954 10953 10952 10952 10953 10954 10955 10955 10955
10795 10796 10798 10801 10805 10808 10810 10814 10817 10820 10823 10827 10829 10832 10835 10838 10841 10844 10847 10850 10853 10856 10859 10863 10866 10869 10873 10877 10881 10884 10885 10887 10891 10895 10897 10899 10901 10901 10902 10904 10906 10907 10908 10910 10911 10914 10917 10919 10919 10919 10920 10921 10923 10924 10925 10924 10925 10926 10928 10930 10931 10931 10931 10933 10934 10934 10936 10937 10938 10938 10939 10940 10940 10941 10942 10943 10943 10942 10941 10943 10944 10945 10946 10946 10945
10785 10786 10788 10791 10794 10797 10800 10803 10806 10808 10811 10814 10817 10820 10823 10825 10828 10832 10834 10837 10840 10843 10847 10850 10854 10856 10859 10863 10868 10871 10873 10875 10878 10881 10884 10887 10891 10893 10893 10894 10896 10898 10900 10901 10902 10903 10906 10909 10909 10909 10909 10910 10911 10912 10912 10913 10913 10914 10916 10918 10920 10921 10922 10923 10924 10925 10925 10925 10926 10928 10929 10930 10932 10934 10934 10934 10932 10931 10932 10933 10934 10935 10936 10936 10934
10774 10776 10778 10780 10783 10787 10789 10792 10794 10796 10799 10801 10804 10807 10810 10813 10816 10818 10821 10824 10828 10831 10833 10837 10841 10844 10846 10850 10854 10858 10861 10863 10866 10869 10871 10873 10876 10880 10883 10884 10886 10888 10890 10891 10892 10893 10895 10897 10898 10899 10899 10899 10899 10900 10900 10900 10900 10900 10902 10905 10908 10910 10912 10913 10914 10915 10915 10915 10915 10916 10917 10918 10920 10922 10922 10922 10922 10922 10923 10923 10923 10924 10925 10924 10922